DW9888 Weather Reports


Display with metric or nautical units.
time (UTC)temp
F
wind
direction
speed
MPH
gust
MPH
rain 1hr
in
rain 24hr
in
rain mn
in
humidity
%
barometer
mb
20190719203100 81 156 1.0 5.0 0.00 0.00 0.00 53 984.3
20190719201604 80 283 3.0 6.0 0.00 0.00 0.00 53 984.5
20190719200058 81 238 1.0 6.0 0.00 0.00 0.00 54 984.7
20190719194557 81 269 2.0 6.0 0.00 0.00 0.00 53 984.8
20190719193122 81 246 2.0 11.0 0.00 0.00 0.00 54 984.9
20190719191545 80 276 2.0 5.0 0.00 0.00 0.00 53 984.9
20190719190105 80 180 2.0 5.0 0.00 0.00 0.00 53 985.0
20190719184555 79 235 1.0 7.0 0.00 0.00 0.00 56 985.1
20190719183031 77 221 1.0 4.0 0.00 0.00 0.00 58 985.3
20190719181547 76 273 0.0 5.0 0.00 0.00 0.00 61 985.3
20190719180032 75 225 2.0 5.0 0.00 0.00 0.00 63 985.4
20190719174511 74 212 0.0 3.0 0.00 0.00 0.00 65 985.3
20190719173006 72 229 1.0 3.0 0.00 0.00 0.00 69 985.2
20190719171502 70 248 0.0 4.0 0.00 0.00 0.00 73 985.3
20190719170213 69 351 0.0 2.0 0.00 0.00 0.00 74 985.3
20190719164644 67 214 0.0 3.0 0.00 0.00 0.00 78 985.3
20190719163144 66 272 0.0 2.0 0.00 0.00 0.00 81 985.4
20190719161623 65 236 0.0 4.0 0.00 0.00 0.00 81 985.4
20190719160118 64 172 0.0 2.0 0.00 0.00 0.00 85 985.5
20190719154618 63 221 0.0 2.0 0.00 0.00 0.00 86 985.5
20190719153059 63 149 0.0 1.0 0.00 0.00 0.00 86 985.4
20190719151642 62 252 0.0 1.0 0.00 0.00 0.00 87 985.3
20190719150046 62 156 0.0 1.0 0.00 0.00 0.00 87 985.3
20190719144544 62 143 0.0 0.0 0.00 0.00 0.00 89 985.2
20190719143109 61 143 0.0 1.0 0.00 0.00 0.00 89 985.3
20190719141543 61 211 0.0 1.0 0.00 0.00 0.00 90 985.2
20190719140039 61 211 0.0 1.0 0.00 0.00 0.00 90 985.1
20190719134536 61 250 0.0 1.0 0.00 0.00 0.00 90 984.9
20190719133045 61 172 0.0 1.0 0.00 0.00 0.00 91 984.9
20190719131616 61 279 0.0 1.0 0.00 0.00 0.00 91 984.7
20190719130041 61 218 0.0 0.0 0.00 0.00 0.00 91 984.8
20190719124527 61 218 0.0 1.0 0.00 0.00 0.00 91 984.9
20190719123036 61 169 0.0 1.0 0.00 0.00 0.00 91 984.7
20190719121559 61 214 0.0 1.0 0.00 0.00 0.00 91 984.7
20190719120033 61 204 0.0 1.0 0.00 0.00 0.00 91 984.5
20190719114618 61 181 0.0 0.0 0.00 0.00 0.00 91 984.4
20190719113213 61 181 0.0 1.0 0.00 0.00 0.00 91 984.3
20190719111622 61 204 0.0 1.0 0.00 0.00 0.00 91 984.4
20190719110107 61 222 0.0 0.0 0.00 0.00 0.00 91 984.3
20190719104548 61 266 0.0 0.0 0.00 0.00 0.00 90 984.2
20190719103058 61 229 0.0 0.0 0.00 0.00 0.00 90 984.3
20190719101534 61 155 0.0 0.0 0.00 0.00 0.00 90 984.4
20190719100048 61 214 0.0 0.0 0.00 0.00 0.00 89 984.3
20190719094536 61 211 0.0 0.0 0.00 0.00 0.00 89 984.3
20190719093026 61 162 0.0 0.0 0.00 0.00 0.00 89 984.4
20190719090054 61 219 0.0 0.0 0.00 0.00 0.00 89 984.5
20190719084515 61 226 0.0 1.0 0.00 0.00 0.00 89 984.6
20190719083048 61 170 0.0 1.0 0.00 0.00 0.00 89 984.8
20190719081527 61 167 0.0 1.0 0.00 0.00 0.00 89 985.0
20190719080016 61 167 0.0 0.0 0.00 0.00 0.00 89 985.0
20190719074529 61 183 0.0 0.0 0.00 0.00 0.00 89 985.0
20190719073012 61 165 0.0 0.0 0.00 0.00 0.00 90 985.1
20190719071537 61 165 0.0 0.0 0.00 0.00 0.00 90 985.0
20190719070020 61 165 0.0 1.0 0.00 0.00 0.00 90 985.1
20190719064507 61 165 0.0 0.0 0.00 0.00 0.00 90 985.2
20190719063005 61 165 0.0 0.0 0.00 0.00 0.00 89 985.1
20190719061519 61 165 0.0 0.0 0.00 0.00 0.00 88 985.1
20190719060003 61 165 0.0 0.0 0.00 0.00 0.00 87 985.1
20190719054645 62 294 0.0 1.0 0.00 0.00 0.00 87 985.1
20190719053202 62 269 0.0 1.0 0.00 0.00 0.00 87 985.2
20190719051736 62 252 0.0 1.0 0.00 0.00 0.00 86 985.1
20190719050118 63 269 0.0 2.0 0.00 0.00 0.00 86 985.0
20190719044641 63 284 0.0 2.0 0.00 0.00 0.00 85 984.9
20190719043150 64 301 0.0 3.0 0.00 0.00 0.00 84 984.6
20190719041818 64 276 0.0 3.0 0.00 0.00 0.00 83 984.5
20190719040201 65 277 0.0 1.0 0.00 0.00 0.00 82 984.5
20190719034609 66 279 0.0 1.0 0.00 0.00 0.00 80 984.2
20190719033119 66 273 0.0 2.0 0.00 0.00 0.00 77 984.1
20190719031604 68 259 0.0 2.0 0.00 0.00 0.00 75 983.9
20190719030133 69 322 0.0 4.0 0.00 0.00 0.00 71 983.8
20190719024649 71 247 1.0 4.0 0.00 0.00 0.00 68 983.7
20190719023116 73 284 1.0 5.0 0.00 0.00 0.00 64 983.5
20190719021625 75 305 1.0 6.0 0.00 0.00 0.00 62 983.4
20190719020132 76 211 3.0 6.0 0.00 0.00 0.00 60 983.4
20190719014643 77 311 3.0 6.0 0.00 0.00 0.00 58 983.4
20190719013138 78 300 2.0 5.0 0.00 0.00 0.00 57 983.4
20190719011708 79 298 2.0 8.0 0.00 0.00 0.00 57 983.5
20190719010235 79 302 2.0 6.0 0.00 0.00 0.00 56 983.5
20190719004702 79 269 2.0 7.0 0.00 0.00 0.00 56 983.6
20190719003223 80 317 2.0 8.0 0.00 0.00 0.00 56 983.6
20190719001722 81 307 2.0 8.0 0.00 0.00 0.00 55 983.6
20190719000139 80 294 2.0 8.0 0.00 0.00 0.00 55 983.7
20190718234635 82 248 3.0 9.0 0.00 0.00 0.00 54 983.8
20190718233108 83 281 3.0 9.0 0.00 0.00 0.00 50 983.9
20190718231716 84 276 2.0 8.0 0.00 0.00 0.00 49 983.9
20190718230141 84 280 3.0 8.0 0.00 0.00 0.00 47 983.9
20190718224557 84 176 1.0 7.0 0.00 0.00 0.00 47 984.1
20190718223103 85 262 1.0 7.0 0.00 0.00 0.00 45 984.1
20190718221600 85 253 2.0 8.0 0.00 0.00 0.00 46 984.4
20190718220109 85 217 1.0 8.0 0.00 0.00 0.00 45 984.5
20190718214615 85 170 1.0 7.0 0.00 0.00 0.00 45 984.6
20190718213051 85 310 2.0 7.0 0.00 0.00 0.00 46 984.7
20190718211552 85 271 0.0 6.0 0.00 0.00 0.00 47 984.8
20190718210118 85 105 1.0 8.0 0.00 0.00 0.00 50 985.0
20190718204552 84 310 2.0 9.0 0.00 0.00 0.00 51 985.2